Mosinee, WI

8:46 AM CST on February 23, 2017 (GMT -0600)
Central Wisconsin

Weather History for KCWA - February, 2013

Change the Weather History Date:

Saturday, February 23, 2013

  Actual Average Record
Temperature  
Mean Temperature 24 °F -  
Max Temperature 26 °F 29 °F 39 °F (2002)
Min Temperature 21 °F 12 °F -18 °F (2015)
Degree Days  
Heating Degree Days 42    
Moisture  
Dew Point 23 °F    
Average Humidity 91    
Maximum Humidity 100    
Minimum Humidity 80    
Precipitation  
Precipitation 0.00 in - - ()
Sea Level Pressure  
Sea Level Pressure 29.80 in    
Wind  
Wind Speed 6 mph (West)    
Max Wind Speed 14 mph    
Max Gust Speed 18 mph    
Visibility 9 miles    
Events Snow    
Averages and records for this station are not official NWS values.
T = Trace of Precipitation, MM = Missing Value Source: NWS Daily Summary

Daily Weather History Graph

Daily Weather History Graph

Search for Another Location

Airport or City:

Trip Planner

Search our weather history database for the weather conditions in past years. The results will help you decide how hot, cold, wet, or windy it might be!

Date:

Astronomy

Feb. 23, 2013 Rise Set
Actual Time 6:46 AM CST 5:38 PM CST
Civil Twilight 6:16 AM CST 6:08 PM CST
Nautical Twilight 5:42 AM CST 6:42 PM CST
Astronomical Twilight 5:08 AM CST 7:16 PM CST
Moon 3:46 PM CST 5:11 AM CST
Length of Visible Light 11h 51m
Length of Day
10h 52m
Waxing Gibbous, 95% of the Moon is Illuminated
Feb 23
Waxing Gibbous
Feb 25
Full
Mar 4
Last Quarter
Mar 11
New
Mar 19
First Quarter

Hourly Weather History & Observations

Time (CST) Temp. Windchill Dew Point Humidity Pressure Visibility Wind Dir Wind Speed Gust Speed Precip Events Conditions
12:15 AM 26.6 °F - 26.6 °F 100% 29.76 in 5.0 mi Calm Calm - N/A Snow Light Snow
12:35 AM 24.8 °F 20.5 °F 24.8 °F 100% 29.75 in 5.0 mi NW 3.5 mph - N/A Snow Light Snow
12:55 AM 24.8 °F 19.1 °F 24.8 °F 100% 29.76 in 10.0 mi NW 4.6 mph - N/A   Overcast
1:15 AM 24.8 °F - 24.8 °F 100% 29.76 in 10.0 mi Calm Calm - N/A   Overcast
1:35 AM 24.8 °F - 24.8 °F 100% 29.76 in 10.0 mi Calm Calm - N/A   Overcast
1:55 AM 24.8 °F 20.5 °F 24.8 °F 100% 29.76 in 10.0 mi WNW 3.5 mph - N/A   Overcast
2:15 AM 24.8 °F 17.9 °F 24.8 °F 100% 29.75 in 10.0 mi West 5.8 mph - N/A   Overcast
2:35 AM 24.8 °F 16.9 °F 24.8 °F 100% 29.75 in 10.0 mi West 6.9 mph - N/A   Overcast
2:55 AM 23.0 °F 14.7 °F 23.0 °F 100% 29.75 in 10.0 mi WSW 6.9 mph - N/A   Overcast
3:15 AM 23.0 °F 14.7 °F 23.0 °F 100% 29.75 in 10.0 mi WNW 6.9 mph - N/A Snow Light Snow
3:35 AM 21.2 °F 13.6 °F 21.2 °F 100% 29.75 in 10.0 mi West 5.8 mph - N/A   Overcast
4:15 AM 21.2 °F 13.6 °F 21.2 °F 100% 29.75 in 10.0 mi West 5.8 mph - N/A Snow Light Snow
4:35 AM 21.2 °F 13.6 °F 21.2 °F 100% 29.75 in 10.0 mi West 5.8 mph - N/A Snow Light Snow
6:45 AM 21.2 °F 13.6 °F 21.2 °F 100% 29.77 in 1.0 mi WSW 5.8 mph - N/A Snow Light Snow
7:15 AM 21.2 °F 12.6 °F 21.2 °F 100% 29.77 in 1.0 mi WSW 6.9 mph - N/A Snow Light Snow
7:55 AM 21.2 °F 12.6 °F 21.2 °F 100% 29.77 in 4.0 mi WSW 6.9 mph - N/A Snow Light Snow
8:55 AM 24.8 °F 16.1 °F 21.2 °F 86% 29.78 in 10.0 mi West 8.1 mph - N/A   Overcast
10:45 AM 24.8 °F 12.9 °F 21.2 °F 86% 29.79 in 10.0 mi West 13.8 mph 18.4 mph N/A   Overcast
12:45 PM 26.6 °F 17.5 °F 21.2 °F 80% 29.78 in 10.0 mi West 9.2 mph - N/A   Overcast
1:45 PM 26.6 °F 16.2 °F 21.2 °F 80% 29.78 in 10.0 mi West 11.5 mph - N/A   Overcast
2:45 PM 26.6 °F 17.5 °F 21.2 °F 80% 29.79 in 10.0 mi West 9.2 mph - N/A   Overcast
3:45 PM 24.8 °F 15.3 °F 19.4 °F 80% 29.79 in 10.0 mi WSW 9.2 mph - N/A   Scattered Clouds
4:45 PM 24.8 °F 17.9 °F 21.2 °F 86% 29.80 in 10.0 mi West 5.8 mph - N/A   Scattered Clouds
5:45 PM 26.6 °F 19.1 °F 21.2 °F 80% 29.82 in 10.0 mi WSW 6.9 mph - N/A   Overcast
6:50 PM 24.8 °F 16.9 °F 21.2 °F 86% 29.83 in 10.0 mi West 6.9 mph - N/A   Overcast
7:45 PM 24.8 °F 16.1 °F 21.2 °F 86% 29.84 in 10.0 mi West 8.1 mph - N/A   Overcast
8:45 PM 24.8 °F 15.3 °F 21.2 °F 86% 29.85 in 10.0 mi WSW 9.2 mph - N/A Snow Light Snow
9:15 PM 26.6 °F 16.8 °F 23.0 °F 86% 29.86 in 10.0 mi WSW 10.4 mph - N/A   Overcast
9:35 PM 26.6 °F 16.8 °F 23.0 °F 86% 29.86 in 10.0 mi WSW 10.4 mph - N/A Snow Light Snow
9:45 PM 24.8 °F 14.6 °F 23.0 °F 93% 29.86 in 10.0 mi WSW 10.4 mph - N/A   Overcast
9:55 PM 26.6 °F 16.2 °F 23.0 °F 86% 29.86 in 10.0 mi WSW 11.5 mph - N/A   Overcast
10:15 PM 26.6 °F 16.2 °F 23.0 °F 86% 29.86 in 10.0 mi WSW 11.5 mph - N/A   Overcast
10:35 PM 26.6 °F 17.5 °F 23.0 °F 86% 29.87 in 10.0 mi West 9.2 mph - N/A   Overcast
10:55 PM 26.6 °F 17.5 °F 23.0 °F 86% 29.86 in 10.0 mi West 9.2 mph - N/A   Overcast
11:15 PM 26.6 °F 17.5 °F 23.0 °F 86% 29.87 in 10.0 mi West 9.2 mph - N/A Snow Light Snow
11:35 PM 26.6 °F 18.2 °F 23.0 °F 86% 29.87 in 10.0 mi West 8.1 mph - N/A   Overcast
11:55 PM 26.6 °F 18.2 °F 23.0 °F 86% 29.87 in 10.0 mi West 8.1 mph - N/A   Overcast